FW1426 Weather Reports


time (UTC)temp
C
wind
direction
speed
KPH
gust
KPH
rain 1hr
cm
rain 24hr
cm
rain mn
cm
humidity
%
barometer
mb
20200531074548 27 315 1.6 6.4 0.00 0.00 0.00 33 1006.2
20200531073044 27 273 1.6 6.4 0.00 0.00 0.00 36 1006.2
20200531071539 28 272 1.6 6.4 0.00 0.00 0.00 30 1006.3
20200531070025 28 252 4.8 8.0 0.00 0.00 0.00 29 1006.1
20200531064539 29 202 0.0 6.4 0.00 0.00 0.00 29 1006.1
20200531063044 30 189 3.2 11.3 0.00 0.00 0.00 29 1006.1
20200531061558 29 205 3.2 8.0 0.00 0.00 0.00 29 1005.8
20200531060028 29 175 4.8 9.7 0.00 0.00 0.00 28 1005.7
20200531054521 29 197 0.0 8.0 0.00 0.00 0.00 29 1005.2
20200531053047 29 52 3.2 4.8 0.00 0.00 0.00 29 1005.8
20200531051523 29 52 3.2 6.4 0.00 0.00 0.00 29 1005.8
20200531050034 30 52 0.0 4.8 0.00 0.00 0.00 28 1005.9
20200531044527 30 52 1.6 4.8 0.00 0.00 0.00 27 1005.9
20200531043020 30 88 4.8 9.7 0.00 0.00 0.00 27 1005.6
20200531041517 31 70 1.6 4.8 0.00 0.00 0.00 27 1005.7
20200531040018 31 84 3.2 14.5 0.00 0.00 0.00 27 1005.7
20200531034536 31 265 1.6 4.8 0.00 0.00 0.00 27 1005.8
20200531033101 31 263 0.0 14.5 0.00 0.00 0.00 26 1005.7
20200531031520 32 302 9.7 29.0 0.00 0.00 0.00 25 1005.8
20200531030011 32 252 14.5 22.5 0.00 0.00 0.00 22 1006.4
20200531024511 32 229 9.7 20.9 0.00 0.00 0.00 22 1006.8
20200531023009 33 250 16.1 33.8 0.00 0.00 0.00 21 1006.4
20200531021517 33 257 11.3 24.1 0.00 0.00 0.00 21 1005.8
20200531020041 33 245 8.0 16.1 0.00 0.00 0.00 20 1005.3
20200531014516 34 257 14.5 27.4 0.00 0.00 0.00 19 1005.3
20200531013012 34 304 6.4 27.4 0.00 0.00 0.00 18 1004.5
20200531011541 34 239 12.9 30.6 0.00 0.00 0.00 18 1004.2
20200531010006 35 250 17.7 33.8 0.00 0.00 0.00 17 1003.6
20200531004504 35 234 14.5 27.4 0.00 0.00 0.00 18 1003.4
20200531003004 35 264 16.1 29.0 0.00 0.00 0.00 18 1003.8
20200531001504 34 322 9.7 22.5 0.00 0.00 0.00 21 1003.7
20200531000015 36 294 11.3 24.1 0.00 0.00 0.00 16 1003.8
20200530234504 36 214 8.0 20.9 0.00 0.00 0.00 16 1003.8
20200530233005 36 189 12.9 24.1 0.00 0.00 0.00 15 1003.5
20200530231516 36 221 14.5 33.8 0.00 0.00 0.00 15 1003.5
20200530230140 36 201 17.7 46.7 0.00 0.00 0.00 16 1003.4
20200530224757 36 211 14.5 32.2 0.00 0.00 0.00 17 1003.5
20200530223204 37 193 14.5 25.7 0.00 0.00 0.00 16 1003.6
20200530221711 38 180 3.2 22.5 0.00 0.00 0.00 14 1003.5
20200530220313 38 199 6.4 27.4 0.00 0.00 0.00 16 1003.6
20200530214626 38 210 6.4 16.1 0.00 0.00 0.00 16 1003.7
20200530213152 39 160 8.0 14.5 0.00 0.00 0.00 15 1003.8
20200530211733 38 312 4.8 8.0 0.00 0.00 0.00 16 1004.1
20200530210103 40 238 6.4 14.5 0.00 0.00 0.00 15 1004.3
20200530203259 40 346 3.2 16.1 0.00 0.00 0.00 16 1004.8
20200530201606 39 70 8.0 16.1 0.00 0.00 0.00 16 1005.3
20200530200051 40 235 8.0 16.1 0.00 0.00 0.00 16 1005.6
20200530194612 39 307 1.6 11.3 0.00 0.00 0.00 16 1005.9
20200530193051 38 252 8.0 17.7 0.00 0.00 0.00 18 1006.1
20200530190051 37 229 4.8 16.1 0.00 0.00 0.00 19 1006.6
20200530184654 37 286 6.4 17.7 0.00 0.00 0.00 19 1006.8
20200530183038 37 302 6.4 19.3 0.00 0.00 0.00 20 1006.9
20200530181538 37 274 8.0 16.1 0.00 0.00 0.00 20 1007.2
20200530180028 37 305 3.2 14.5 0.00 0.00 0.00 19 1007.3
20200530174522 36 78 1.6 4.8 0.00 0.00 0.00 20 1007.5
20200530173038 36 61 0.0 8.0 0.00 0.00 0.00 22 1007.7
20200530171538 35 63 4.8 11.3 0.00 0.00 0.00 22 1007.8
20200530170011 35 67 3.2 8.0 0.00 0.00 0.00 22 1008.0
20200530164512 33 269 1.6 4.8 0.00 0.00 0.00 24 1008.1
20200530163002 32 270 3.2 6.4 0.00 0.00 0.00 27 1008.1
20200530161628 32 262 1.6 6.4 0.00 0.00 0.00 27 1008.3
20200530160116 32 252 3.2 8.0 0.00 0.00 0.00 29 1008.4
20200530154659 31 280 1.6 4.8 0.00 0.00 0.00 29 1008.5
20200530153130 30 340 1.6 4.8 0.00 0.00 0.00 29 1008.5
20200530151601 30 350 1.6 4.8 0.00 0.00 0.00 32 1008.6
20200530150059 29 346 3.2 6.4 0.00 0.00 0.00 35 1008.7
20200530144644 28 355 4.8 8.0 0.00 0.00 0.00 38 1008.7
20200530143134 27 65 3.2 4.8 0.00 0.00 0.00 42 1008.5
20200530141615 28 67 1.6 4.8 0.00 0.00 0.00 38 1008.4
20200530140107 26 42 3.2 6.4 0.00 0.00 0.00 41 1008.3
20200530134559 26 79 1.6 4.8 0.00 0.00 0.00 43 1008.3
20200530133100 25 80 3.2 6.4 0.00 0.00 0.00 41 1008.4
20200530131558 24 72 3.2 8.0 0.00 0.00 0.00 43 1008.5
20200530130025 24 149 0.0 3.2 0.00 0.00 0.00 48 1008.5
20200530124534 24 150 1.6 4.8 0.00 0.00 0.00 44 1008.3
20200530123043 24 150 1.6 8.0 0.00 0.00 0.00 41 1008.1
20200530121608 24 146 3.2 6.4 0.00 0.00 0.00 41 1008.1
20200530120027 23 79 3.2 4.8 0.00 0.00 0.00 41 1007.7
20200530114528 24 78 1.6 4.8 0.00 0.00 0.00 42 1007.8
20200530113014 25 78 1.6 6.4 0.00 0.00 0.00 39 1007.7
20200530111535 25 78 1.6 4.8 0.00 0.00 0.00 41 1007.6
20200530110033 25 79 1.6 4.8 0.00 0.00 0.00 40 1007.7
20200530104535 26 77 3.2 6.4 0.00 0.00 0.00 37 1007.7
20200530103018 26 46 4.8 8.0 0.00 0.00 0.00 38 1007.7
20200530101504 26 172 3.2 4.8 0.00 0.00 0.00 40 1007.5
20200530100010 26 175 1.6 4.8 0.00 0.00 0.00 36 1007.5
20200530094715 26 160 4.8 8.0 0.00 0.00 0.00 37 1007.6
20200530093115 26 92 0.0 3.2 0.00 0.00 0.00 38 1007.7
20200530091723 27 92 1.6 6.4 0.00 0.00 0.00 34 1007.7
20200530090222 27 103 4.8 11.3 0.00 0.00 0.00 33 1007.8
20200530084626 26 90 3.2 4.8 0.00 0.00 0.00 34 1007.8
20200530083217 27 89 1.6 4.8 0.00 0.00 0.00 34 1007.9
20200530081717 27 89 1.6 4.8 0.00 0.00 0.00 33 1008.1
20200530080116 28 89 1.6 6.4 0.00 0.00 0.00 31 1008.4